Regional Weather Roundup
Issued by NWS

Home | Current Version | Previous Version | Text Only | Print | Product List | Glossary Off
Versions: 1 2 3 4 5 6 7 8 9 10 11 12 13 14 15 16 17 18 19 20 21 22 23 24 25 26 27 28 29 30 31 32 33 34 35 36 37 38 39 40 41 42 43 44 45 46 47 48 49 50

000
ASUS43 KBIS 302210
RWRND

NORTH DAKOTA REGIONAL WEATHER ROUNDUP
NATIONAL WEATHER SERVICE BISMARCK ND
500 PM CDT FRI SEP 30 2016

NOTE: "FAIR" INDICATES FEW OR NO CLOUDS BELOW 12,000 FEET WITH NO
SIGNIFICANT WEATHER AND/OR OBSTRUCTIONS TO VISIBILITY.


NDZ001>003-009>011-017-302300-
NORTHWEST NORTH DAKOTA

CITY           SKY/WX    TMP DP  RH WIND       PRES   REMARKS
WILLISTON      PTSUNNY   62  51  67 VRB3      30.00R
MINOT          CLOUDY    62  54  74 E6        30.07S
MINOT AFB      DRIZZLE   60  53  80 SE7       30.07S
$$

NDZ018>021-031>035-040>046-302300-
SOUTHWEST NORTH DAKOTA

CITY           SKY/WX    TMP DP  RH WIND       PRES   REMARKS
BISMARCK       CLOUDY    68  48  48 SE15      30.08F
DICKINSON      SUNNY     67  45  45 S22       30.01S
GARRISON         N/A     64  53  67 SE7       30.06S
HETTINGER ARPT CLOUDY    68  46  45 SE16      30.04R
$$

NDZ004>008-012>016-024-026-027-054-302300-
NORTHEAST NORTH DAKOTA

CITY           SKY/WX    TMP DP  RH WIND       PRES   REMARKS
GRAND FORKS    MOSUNNY   71  49  45 SE15      30.19F
GRND FRKS AFB  MOSUNNY   68  49  49 SE10      30.19S
DEVILS LAKE    CLOUDY    64  51  62 SE8       30.16F
$$

NDZ022-023-025-028>030-036>039-047>053-302300-
SOUTHEAST NORTH DAKOTA

CITY           SKY/WX    TMP DP  RH WIND       PRES   REMARKS
FARGO          CLOUDY    71  48  43 SE17G23   30.20F
JAMESTOWN      MOSUNNY   68  48  48 SE15      30.14F
$$





USA.gov is the U.S. government's official web portal to all federal, state and local government web resources and services.